This is the latest recevied weather packets stored in our database for station/object IZ5MMH-4. If no packets are shown the sender has not sent any weather packets the latest 10 day(s).
| Time | Temp. | Humidity | Pressure | Rain* | Wind** | Luminosity | Snow |
|---|---|---|---|---|---|---|---|
| 1787499264 | 31.11° C | 46% | 1017.7 hPa | - | - | - | - |
| 1787498664 | 31.11° C | 48% | 1017.8 hPa | - | - | - | - |
| 1787498063 | 31.67° C | 47% | 1017.7 hPa | - | - | - | - |
| 1787497463 | 31.67° C | 45% | 1017.7 hPa | - | - | - | - |
| 1787496864 | 31.67° C | 46% | 1017.6 hPa | - | - | - | - |
| 1787496264 | 31.67° C | 46% | 1017.7 hPa | - | - | - | - |
| 1787495664 | 31.11° C | 45% | 1017.6 hPa | - | - | - | - |
| 1787495063 | 31.11° C | 46% | 1017.6 hPa | - | - | - | - |
| 1787494463 | 31.11° C | 45% | 1017.8 hPa | - | - | - | - |
| 1787493865 | 31.11° C | 45% | 1017.7 hPa | - | - | - | - |
| 1787493264 | 30.56° C | 47% | 1017.8 hPa | - | - | - | - |
| 1787492664 | 30.56° C | 50% | 1017.8 hPa | - | - | - | - |
| 1787492064 | 30.56° C | 48% | 1017.8 hPa | - | - | - | - |
| 1787491463 | 30.56° C | 50% | 1017.9 hPa | - | - | - | - |
| 1787490864 | 30.56° C | 50% | 1018 hPa | - | - | - | - |
| 1787490263 | 30.56° C | 51% | 1018.1 hPa | - | - | - | - |
| 1787489663 | 30° C | 51% | 1018.2 hPa | - | - | - | - |
| 1787489063 | 30.56° C | 51% | 1018.3 hPa | - | - | - | - |
| 1787488463 | 30° C | 53% | 1018.3 hPa | - | - | - | - |
| 1787487863 | 30° C | 54% | 1018.3 hPa | - | - | - | - |
| 1787487264 | 30° C | 53% | 1018.2 hPa | - | - | - | - |
| 1787486663 | 30° C | 54% | 1018.1 hPa | - | - | - | - |
| 1787486064 | 30° C | 53% | 1018.2 hPa | - | - | - | - |
| 1787485463 | 30° C | 51% | 1018.1 hPa | - | - | - | - |
| 1787484864 | 30° C | 51% | 1018.3 hPa | - | - | - | - |
* Rain since midnight (hover to see other rain measurements)
** Current wind speed in m/s (hover to see current wind gust speed)